Вернуться в каталог

KUIPER-00151

АктивенСвязьLEO
NORAD 65771·PAYLOAD·🇺🇸 United States

Запущен Sep 25, 2025 с Cape Canaveral Space Force Station

Loading…

Ближайшие Пролёты (ближайшие 24 часа)

TLE

СвежийSource: CelesTrak SupGP

Эпоха: Sep 15, 2026, 02:10 UTC

1 65771C 25217K   26258.09075232  .00000578  00000+0  75711-4 0  2586
2 65771  51.9000 285.5934 0000515  67.6648  39.2706 14.79928157    18

Отслеживайте KUIPER-00151 в реальном времени с AllMySat

Download on the App Store